Location: Owatonna
(44.0840°N, 93.2260°W)
Time: 15:50:19
(UTC-05:00)

Tiangong 1 - Visible Passes

Search period start: 25 September 2016 00:00
Search period end: 05 October 2016 00:00
Orbit: 359 x 380 km, 42.8° (Epoch: 25 September)

Date Brightness Start Highest point End Pass type
(mag) Time Alt. Az. Time Alt. Az. Time Alt. Az.
25 Sep 3.5 04:54:38 18° ESE 04:54:38 18° ESE 04:55:54 10° E visible
25 Sep 1.3 06:26:33 10° WSW 06:29:33 60° S 06:32:34 10° E visible
26 Sep 1.6 05:25:06 44° SSE 05:25:07 44° SSE 05:28:02 10° E visible
27 Sep 1.0 05:55:31 29° WSW 05:56:53 67° S 05:59:54 10° E visible
28 Sep 3.3 04:53:59 23° E 04:53:59 23° E 04:55:19 10° E visible
28 Sep 1.1 06:25:53 12° W 06:28:38 65° S 06:31:39 10° ESE visible
29 Sep 1.2 05:24:20 63° SE 05:24:20 63° SE 05:27:04 10° E visible
30 Sep 1.1 05:54:41 34° WSW 05:55:43 57° S 05:58:43 10° ESE visible
01 Oct 3.7 04:53:08 18° ESE 04:53:08 18° ESE 04:54:05 10° E visible
01 Oct 2.0 06:25:02 14° W 06:27:15 32° SSW 06:30:01 10° SE visible
02 Oct 2.2 05:23:31 34° SE 05:23:31 34° SE 05:25:35 10° ESE visible
03 Oct 2.3 05:53:58 24° SSW 05:54:04 24° SSW 05:56:35 10° SSE visible
04 Oct 3.4 06:24:46 10° SW 06:25:15 10° SSW 06:25:44 10° SSW visible
